| time (UTC) | temp C | wind direction | speed KPH | gust KPH | rain 1hr cm | rain 24hr cm | rain mn cm | humidity % | barometer mb |
| 20260506080652 | 8 | 339 | 1.6 | 6.4 | 0.18 | 1.93 | 0.66 | 96 | 1009.3 |
| 20260506073009 | 9 | 45 | 1.6 | 4.8 | 0.18 | 1.78 | 0.51 | 96 | 1009.2 |
| 20260506072902 | 9 | 45 | 1.6 | 4.8 | 0.18 | 1.78 | 0.51 | 96 | 1009.2 |
| 20260506072653 | 9 | 45 | 1.6 | 4.8 | 0.18 | 1.78 | 0.51 | 96 | 1009.2 |
| 20260506071648 | 9 | 45 | 1.6 | 4.8 | 0.18 | 1.78 | 0.51 | 96 | 1009.2 |
| 20260506071009 | 9 | 81 | 1.6 | 3.2 | 0.18 | 1.75 | 0.48 | 96 | 1009.2 |
| 20260506070649 | 9 | 81 | 1.6 | 3.2 | 0.18 | 1.75 | 0.48 | 96 | 1009.2 |
| 20260506061648 | 9 | 59 | 1.6 | 4.8 | 0.13 | 1.60 | 0.33 | 96 | 1010.0 |
| 20260506060724 | 10 | 350 | 0.0 | 3.2 | 0.15 | 1.57 | 0.30 | 96 | 1009.9 |
| 20260506060650 | 10 | 350 | 0.0 | 3.2 | 0.15 | 1.57 | 0.30 | 96 | 1009.9 |
| 20260506050648 | 10 | 39 | 1.6 | 4.8 | 0.15 | 1.42 | 0.15 | 96 | 1010.6 |
| 20260506044744 | 10 | 359 | 1.6 | 6.4 | 0.13 | 1.37 | 0.10 | 96 | 1010.7 |
| 20260506044650 | 10 | 359 | 1.6 | 6.4 | 0.13 | 1.37 | 0.10 | 96 | 1010.7 |
| 20260506043649 | 10 | 49 | 1.6 | 6.4 | 0.15 | 1.35 | 0.08 | 96 | 1010.8 |
| 20260506042727 | 10 | 357 | 1.6 | 3.2 | 0.23 | 1.30 | 0.03 | 96 | 1011.0 |
| 20260506042647 | 10 | 357 | 1.6 | 3.2 | 0.23 | 1.30 | 0.03 | 96 | 1011.0 |
| 20260506041653 | 10 | 357 | 1.6 | 3.2 | 0.23 | 1.30 | 0.03 | 96 | 1011.0 |
| 20260506040651 | 10 | 347 | 1.6 | 3.2 | 0.30 | 1.27 | 0.00 | 96 | 1011.2 |
| 20260506035649 | 10 | 336 | 0.0 | 4.8 | 0.36 | 1.24 | 1.24 | 96 | 1011.4 |
| 20260506034648 | 10 | 336 | 0.0 | 4.8 | 0.36 | 1.24 | 1.24 | 96 | 1011.4 |
| 20260506033649 | 10 | 310 | 1.6 | 4.8 | 0.33 | 1.19 | 1.19 | 95 | 1011.4 |
| 20260506032830 | 11 | 328 | 1.6 | 3.2 | 0.25 | 1.07 | 1.07 | 96 | 1011.1 |
| 20260506032648 | 11 | 328 | 1.6 | 3.2 | 0.25 | 1.07 | 1.07 | 96 | 1011.1 |
| 20260506031649 | 11 | 328 | 1.6 | 3.2 | 0.25 | 1.07 | 1.07 | 96 | 1011.1 |
| 20260506030649 | 11 | 23 | 1.6 | 3.2 | 0.28 | 0.97 | 0.97 | 95 | 1011.0 |
| 20260506025647 | 11 | 77 | 0.0 | 3.2 | 0.28 | 0.89 | 0.89 | 95 | 1011.0 |
| 20260506024648 | 11 | 77 | 0.0 | 3.2 | 0.28 | 0.89 | 0.89 | 95 | 1011.0 |
| 20260506023652 | 11 | 57 | 1.6 | 6.4 | 0.33 | 0.86 | 0.86 | 95 | 1010.9 |
| 20260506022650 | 12 | 32 | 1.6 | 6.4 | 0.28 | 0.81 | 0.81 | 95 | 1011.2 |
| 20260506021650 | 12 | 32 | 1.6 | 6.4 | 0.28 | 0.81 | 0.81 | 95 | 1011.2 |
| 20260506020651 | 12 | 65 | 0.0 | 4.8 | 0.18 | 0.69 | 0.69 | 95 | 1010.9 |
| 20260506015648 | 12 | 90 | 0.0 | 3.2 | 0.18 | 0.61 | 0.61 | 95 | 1010.9 |
| 20260506014648 | 12 | 90 | 0.0 | 3.2 | 0.18 | 0.61 | 0.61 | 95 | 1010.9 |
| 20260506013650 | 12 | 91 | 1.6 | 3.2 | 0.23 | 0.53 | 0.53 | 95 | 1010.9 |
| 20260506012647 | 12 | 102 | 1.6 | 4.8 | 0.41 | 0.53 | 0.53 | 95 | 1010.7 |
| 20260506011648 | 12 | 102 | 1.6 | 4.8 | 0.41 | 0.53 | 0.53 | 95 | 1010.7 |
| 20260506010648 | 12 | 105 | 1.6 | 3.2 | 0.41 | 0.51 | 0.51 | 94 | 1010.6 |
| 20260506005649 | 13 | 112 | 0.0 | 4.8 | 0.33 | 0.43 | 0.43 | 93 | 1010.9 |
| 20260506004738 | 13 | 112 | 0.0 | 4.8 | 0.33 | 0.43 | 0.43 | 93 | 1010.9 |
| 20260506004652 | 13 | 112 | 0.0 | 4.8 | 0.33 | 0.43 | 0.43 | 93 | 1010.9 |
| 20260506003655 | 13 | 328 | 4.8 | 12.9 | 0.20 | 0.30 | 0.30 | 92 | 1010.9 |
| 20260506002650 | 14 | 334 | 1.6 | 4.8 | 0.03 | 0.13 | 0.13 | 93 | 1010.8 |
| 20260506001809 | 14 | 334 | 1.6 | 4.8 | 0.03 | 0.13 | 0.13 | 93 | 1010.8 |
| 20260506001648 | 14 | 334 | 1.6 | 4.8 | 0.03 | 0.13 | 0.13 | 93 | 1010.8 |
| 20260506000648 | 14 | 73 | 3.2 | 8.0 | 0.00 | 0.10 | 0.10 | 92 | 1010.3 |
| 20260505235814 | 15 | 27 | 1.6 | 6.4 | 0.00 | 0.10 | 0.10 | 92 | 1010.0 |
| 20260505235649 | 15 | 27 | 1.6 | 6.4 | 0.00 | 0.10 | 0.10 | 92 | 1010.0 |
| 20260505234651 | 15 | 27 | 1.6 | 6.4 | 0.00 | 0.10 | 0.10 | 92 | 1010.0 |
| 20260505233746 | 15 | 5 | 1.6 | 6.4 | 0.00 | 0.10 | 0.10 | 92 | 1010.0 |
| 20260505233648 | 15 | 5 | 1.6 | 6.4 | 0.00 | 0.10 | 0.10 | 92 | 1010.0 |
| 20260505232727 | 16 | 269 | 0.0 | 3.2 | 0.00 | 0.10 | 0.10 | 92 | 1010.0 |
| 20260505232650 | 16 | 269 | 0.0 | 3.2 | 0.00 | 0.10 | 0.10 | 92 | 1010.0 |
| 20260505231648 | 16 | 269 | 0.0 | 3.2 | 0.00 | 0.10 | 0.10 | 92 | 1010.0 |
| 20260505230650 | 16 | 269 | 0.0 | 1.6 | 0.00 | 0.10 | 0.10 | 92 | 1009.9 |
| 20260505225733 | 16 | 269 | 0.0 | 1.6 | 0.00 | 0.10 | 0.10 | 91 | 1010.4 |
| 20260505225648 | 16 | 269 | 0.0 | 1.6 | 0.00 | 0.10 | 0.10 | 91 | 1010.4 |
| 20260505224841 | 16 | 269 | 0.0 | 1.6 | 0.00 | 0.10 | 0.10 | 91 | 1010.4 |
| 20260505224649 | 16 | 269 | 0.0 | 1.6 | 0.00 | 0.10 | 0.10 | 91 | 1010.4 |
| 20260505223648 | 16 | 269 | 0.0 | 3.2 | 0.00 | 0.10 | 0.10 | 91 | 1010.4 |
| 20260505222648 | 16 | 269 | 0.0 | 3.2 | 0.00 | 0.10 | 0.10 | 91 | 1010.5 |
| 20260505221648 | 16 | 269 | 0.0 | 3.2 | 0.00 | 0.10 | 0.10 | 91 | 1010.5 |
| 20260505220652 | 16 | 269 | 1.6 | 3.2 | 0.03 | 0.10 | 0.10 | 91 | 1010.3 |
| 20260505215649 | 16 | 269 | 1.6 | 3.2 | 0.08 | 0.10 | 0.10 | 90 | 1010.2 |
| 20260505214705 | 16 | 269 | 1.6 | 3.2 | 0.08 | 0.10 | 0.10 | 90 | 1010.2 |
| 20260505213650 | 16 | 269 | 0.0 | 3.2 | 0.08 | 0.10 | 0.10 | 89 | 1010.3 |
| 20260505212652 | 16 | 272 | 3.2 | 6.4 | 0.08 | 0.10 | 0.10 | 86 | 1010.3 |
| 20260505211649 | 16 | 272 | 3.2 | 6.4 | 0.08 | 0.10 | 0.10 | 86 | 1010.3 |
| 20260505210648 | 18 | 280 | 3.2 | 11.3 | 0.05 | 0.08 | 0.08 | 76 | 1010.5 |
| 20260505205648 | 19 | 274 | 1.6 | 4.8 | 0.00 | 0.03 | 0.03 | 69 | 1010.0 |
| 20260505204657 | 19 | 274 | 1.6 | 4.8 | 0.00 | 0.03 | 0.03 | 69 | 1010.0 |
| 20260505203650 | 20 | 271 | 3.2 | 6.4 | 0.00 | 0.03 | 0.03 | 64 | 1009.9 |
| 20260505202648 | 20 | 273 | 3.2 | 9.7 | 0.00 | 0.03 | 0.03 | 63 | 1009.9 |
| 20260505201649 | 20 | 273 | 3.2 | 9.7 | 0.00 | 0.03 | 0.03 | 63 | 1009.9 |
| 20260505200648 | 20 | 272 | 3.2 | 9.7 | 0.00 | 0.03 | 0.03 | 63 | 1009.9 |
| 20260505195655 | 20 | 269 | 4.8 | 12.9 | 0.00 | 0.03 | 0.03 | 63 | 1010.2 |
| 20260505194648 | 20 | 269 | 4.8 | 12.9 | 0.00 | 0.03 | 0.03 | 63 | 1010.2 |
| 20260505193650 | 20 | 270 | 3.2 | 9.7 | 0.00 | 0.03 | 0.03 | 63 | 1010.6 |
| 20260505192654 | 20 | 262 | 4.8 | 17.7 | 0.00 | 0.03 | 0.03 | 62 | 1010.6 |
| 20260505191647 | 20 | 262 | 4.8 | 17.7 | 0.00 | 0.03 | 0.03 | 62 | 1010.6 |
| 20260505190655 | 20 | 269 | 6.4 | 17.7 | 0.00 | 0.03 | 0.03 | 61 | 1010.7 |
| 20260505185652 | 21 | 260 | 6.4 | 16.1 | 0.00 | 0.03 | 0.03 | 59 | 1010.6 |
| 20260505185006 | 21 | 260 | 6.4 | 16.1 | 0.00 | 0.03 | 0.03 | 59 | 1010.6 |
| 20260505184651 | 21 | 260 | 6.4 | 16.1 | 0.00 | 0.03 | 0.03 | 59 | 1010.6 |
| 20260505183654 | 21 | 254 | 6.4 | 16.1 | 0.00 | 0.03 | 0.03 | 59 | 1010.4 |
| 20260505182647 | 21 | 243 | 8.0 | 19.3 | 0.00 | 0.03 | 0.03 | 59 | 1010.3 |
| 20260505181647 | 21 | 243 | 8.0 | 19.3 | 0.00 | 0.03 | 0.03 | 59 | 1010.3 |
| 20260505180650 | 21 | 248 | 6.4 | 16.1 | 0.00 | 0.03 | 0.03 | 58 | 1010.2 |
| 20260505175648 | 20 | 254 | 4.8 | 17.7 | 0.00 | 0.03 | 0.03 | 61 | 1010.2 |
| 20260505174648 | 20 | 254 | 4.8 | 17.7 | 0.00 | 0.03 | 0.03 | 61 | 1010.2 |
| 20260505173648 | 20 | 259 | 4.8 | 12.9 | 0.00 | 0.03 | 0.03 | 60 | 1010.2 |
| 20260505172650 | 21 | 260 | 6.4 | 17.7 | 0.00 | 0.03 | 0.03 | 60 | 1010.1 |
| 20260505171647 | 21 | 260 | 6.4 | 17.7 | 0.00 | 0.03 | 0.03 | 60 | 1010.1 |
| 20260505170648 | 21 | 238 | 6.4 | 16.1 | 0.00 | 0.03 | 0.03 | 58 | 1010.3 |
| 20260505165740 | 21 | 245 | 6.4 | 16.1 | 0.00 | 0.03 | 0.03 | 59 | 1010.2 |
| 20260505165648 | 21 | 245 | 6.4 | 16.1 | 0.00 | 0.03 | 0.03 | 59 | 1010.2 |
| 20260505164650 | 21 | 245 | 6.4 | 16.1 | 0.00 | 0.03 | 0.03 | 59 | 1010.2 |
| 20260505163650 | 21 | 255 | 6.4 | 19.3 | 0.00 | 0.03 | 0.03 | 58 | 1010.3 |
| 20260505162651 | 21 | 263 | 3.2 | 9.7 | 0.00 | 0.03 | 0.03 | 62 | 1009.9 |
| 20260505161649 | 21 | 263 | 3.2 | 9.7 | 0.00 | 0.03 | 0.03 | 62 | 1009.9 |
| 20260505160648 | 21 | 251 | 8.0 | 17.7 | 0.00 | 0.03 | 0.03 | 62 | 1010.1 |
| 20260505152726 | 20 | 257 | 8.0 | 14.5 | 0.00 | 0.03 | 0.03 | 68 | 1010.4 |
| 20260505152647 | 20 | 257 | 8.0 | 14.5 | 0.00 | 0.03 | 0.03 | 68 | 1010.4 |
| 20260505151653 | 20 | 257 | 8.0 | 14.5 | 0.00 | 0.03 | 0.03 | 68 | 1010.4 |
| 20260505150648 | 18 | 245 | 11.3 | 24.1 | 0.00 | 0.03 | 0.03 | 70 | 1010.0 |
| 20260505140648 | 16 | 230 | 8.0 | 14.5 | 0.03 | 0.03 | 0.03 | 78 | 1009.9 |
| 20260505124843 | 17 | 235 | 4.8 | 9.7 | 0.00 | 0.00 | 0.00 | 72 | 1009.7 |
| 20260505124649 | 17 | 235 | 4.8 | 9.7 | 0.00 | 0.00 | 0.00 | 72 | 1009.7 |
| 20260505123648 | 17 | 239 | 6.4 | 12.9 | 0.00 | 0.00 | 0.00 | 71 | 1009.8 |
| 20260505122648 | 17 | 236 | 6.4 | 11.3 | 0.00 | 0.00 | 0.00 | 70 | 1009.6 |
| 20260505121647 | 17 | 236 | 6.4 | 11.3 | 0.00 | 0.00 | 0.00 | 70 | 1009.6 |
| 20260505120653 | 17 | 233 | 6.4 | 11.3 | 0.00 | 0.00 | 0.00 | 71 | 1009.5 |
| 20260505115647 | 16 | 231 | 6.4 | 12.9 | 0.00 | 0.00 | 0.00 | 71 | 1009.5 |
| 20260505114647 | 16 | 231 | 6.4 | 12.9 | 0.00 | 0.00 | 0.00 | 71 | 1009.5 |
| 20260505113650 | 16 | 234 | 6.4 | 9.7 | 0.00 | 0.00 | 0.00 | 71 | 1009.5 |
| 20260505112816 | 16 | 239 | 6.4 | 12.9 | 0.00 | 0.00 | 0.00 | 70 | 1009.3 |
| 20260505112649 | 16 | 239 | 6.4 | 12.9 | 0.00 | 0.00 | 0.00 | 70 | 1009.3 |
| 20260505111752 | 16 | 239 | 6.4 | 12.9 | 0.00 | 0.00 | 0.00 | 70 | 1009.3 |
| 20260505111649 | 16 | 239 | 6.4 | 12.9 | 0.00 | 0.00 | 0.00 | 70 | 1009.3 |
| 20260505110648 | 17 | 237 | 8.0 | 16.1 | 0.00 | 0.00 | 0.00 | 70 | 1009.3 |
| 20260505101648 | 17 | 243 | 6.4 | 12.9 | 0.00 | 0.00 | 0.00 | 69 | 1008.5 |
| 20260505100655 | 17 | 240 | 8.0 | 12.9 | 0.00 | 0.00 | 0.00 | 69 | 1008.5 |
| 20260505095807 | 17 | 241 | 6.4 | 12.9 | 0.00 | 0.00 | 0.00 | 67 | 1008.5 |
| 20260505095648 | 17 | 241 | 6.4 | 12.9 | 0.00 | 0.00 | 0.00 | 67 | 1008.5 |
| 20260505094855 | 17 | 241 | 6.4 | 12.9 | 0.00 | 0.00 | 0.00 | 67 | 1008.5 |
| 20260505094652 | 17 | 241 | 6.4 | 12.9 | 0.00 | 0.00 | 0.00 | 67 | 1008.5 |
| 20260505093652 | 17 | 245 | 6.4 | 14.5 | 0.00 | 0.00 | 0.00 | 67 | 1008.2 |
| 20260505092723 | 18 | 245 | 8.0 | 17.7 | 0.00 | 0.00 | 0.00 | 66 | 1008.1 |
| 20260505092648 | 18 | 245 | 8.0 | 17.7 | 0.00 | 0.00 | 0.00 | 66 | 1008.1 |
| 20260505091719 | 18 | 245 | 8.0 | 17.7 | 0.00 | 0.00 | 0.00 | 66 | 1008.1 |
| 20260505091647 | 18 | 245 | 8.0 | 17.7 | 0.00 | 0.00 | 0.00 | 66 | 1008.1 |
| 20260505090648 | 18 | 244 | 8.0 | 16.1 | 0.00 | 0.00 | 0.00 | 66 | 1008.0 |
| 20260505085656 | 18 | 233 | 11.3 | 29.0 | 0.00 | 0.00 | 0.00 | 66 | 1007.9 |
| 20260505084651 | 18 | 233 | 11.3 | 29.0 | 0.00 | 0.00 | 0.00 | 66 | 1007.9 |
| 20260505083652 | 17 | 240 | 8.0 | 17.7 | 0.00 | 0.00 | 0.00 | 68 | 1007.8 |
| 20260505082655 | 17 | 234 | 8.0 | 17.7 | 0.00 | 0.00 | 0.00 | 68 | 1007.5 |
| 20260505081653 | 17 | 234 | 8.0 | 17.7 | 0.00 | 0.00 | 0.00 | 68 | 1007.5 |